Regional Weather Roundup
Issued by NWS Charleston, SC

Current Version | Previous Version | Graphics & Text | Print | Product List | Glossary On
Versions: 1 2 3 4 5 6 7 8 9 10 11 12 13 14 15 16 17 18 19 20 21 22 23 24 25 26 27 28 29 30 31 32 33 34 35 36 37 38 39 40 41 42 43 44 45 46 47 48 49 50
086
ASUS42 KCHS 190012
RWRCHS

REGIONAL WEATHER ROUNDUP
NATIONAL WEATHER SERVICE CHARLESTON SC
800 PM EDT FRI AUG 18 2017

NOTE: "FAIR" INDICATES FEW OR NO CLOUDS BELOW 12,000 FEET WITH NO
SIGNIFICANT WEATHER AND/OR OBSTRUCTIONS TO VISIBILITY.

NOT ALL STATIONS ARE QUALITY CONTROLLED. USE DATA WITH CAUTION...
ESPECIALLY DEWPOINT OBSERVATIONS.

SCZ027-030-031-034>040-042>050-190100-
...SOUTHEAST SOUTH CAROLINA...

CITY           SKY/WX    TMP DP  RH WIND       PRES   REMARKS
N CHARLESTON   PTCLDY    85  77  77 S13       29.93R HX  95
6HR MIN TEMP:  85; 6HR MAX TEMP:  96;

WATERFRONT PRK   N/A     86  80  82 S12       29.78R HX 101
JOHNS ISLAND   FAIR      86  81  84 S9        29.94S HX 102
PINOPOLIS        N/A     91  77  62 VRB3      29.84R HX 105
MONCKS CORNER  FAIR      86  77  74 S9        29.92R HX  97
SUMMERVILLE    FAIR      86  79  79 S3        29.93S HX  99
BEAUFORT MCAS  CLEAR     88  79  74 S9        29.93S HX 103
6HR MIN TEMP:  88; 6HR MAX TEMP:  95;

BEAUFORT ARPT  FAIR      86  77  74 S10G18    29.93S HX  97
HILTON HEAD IS CLEAR     88  81  79 S14       29.95S HX 105
WALTERBORO     CLEAR     86  77  74 S8        29.93S HX  97
ALLENDALE      NOT AVBL

...SOUTHERN MIDLANDS AND PEE DEE...

CITY           SKY/WX    TMP DP  RH WIND       PRES   REMARKS
GEORGETOWN     FAIR      82  81  94 S10       29.93S HX  95
KINGSTREE      FAIR      86  75  70 CALM      29.91R HX  95
ORANGEBURG     CLEAR     86  75  69 S6        29.91R HX  95
6HR MIN TEMP:  86; 6HR MAX TEMP:  95;

BARNWELL       FAIR      91  75  59 SW6       29.92S HX 102
AIKEN          FAIR      82  72  69 S9        29.96S
MANNING        FAIR      88  79  74 MISG      29.91R HX 102
COLUMBIA       PTCLDY    90  71  53 SW15G25   29.89R HX  96
6HR MIN TEMP:  90; 6HR MAX TEMP:  97;

SUMTER         CLEAR     89  73  59 S7        29.87R HX  97
6HR MIN TEMP:  89; 6HR MAX TEMP:  97;

FLORENCE       CLEAR     88  75  65 S8        29.89R HX  97
6HR MIN TEMP:  88; 6HR MAX TEMP:  95;

MYRTLE BEACH   CLEAR     86  81  84 S15       29.91  HX 102
N MYRTLE BEACH CLEAR     85  79  82 S18       29.91S HX  98
6HR MIN TEMP:  85; 6HR MAX TEMP:  89;


$$

GAZ063-065-086>088-099>101-113>116-118-119-134>141-150-190100-
...SOUTHEAST GEORGIA...

CITY           SKY/WX    TMP DP  RH WIND       PRES   REMARKS
SAVANNAH ARPT  PTCLDY    87  77  72 S13       29.94R HX  99
6HR MIN TEMP:  87; 6HR MAX TEMP:  97;

HUNTER AAF     CLEAR     87  76  71 S8        29.92R HX  98
6HR MIN TEMP:  87; 6HR MAX TEMP:  96;

FORT STEWART   CLEAR     86  75  69 SW9       29.93R HX  95
6HR MIN TEMP:  86; 6HR MAX TEMP:  97;

STATESBORO     MOCLDY    89  71  53 W3        29.93R HX  95
SYLVANIA       MOCLDY    87  80  80 CALM      29.92S HX 101
CLAXTON        FAIR      89  77  67 CALM      29.92S HX 101

...CSRA...CENTRAL AND FAR SOUTHEAST GEORGIA...

CITY           SKY/WX    TMP DP  RH WIND       PRES   REMARKS
THOMSON        CLEAR     86  74  67 NW3       29.98S HX  93
AUGUSTA-BUSH   CLOUDY    88  75  65 S9        29.91R HX  97
6HR MIN TEMP:  88; 6HR MAX TEMP:  97; 6HR PCP: TRACE;

AUGUSTA-DANIEL MOCLDY    90  70  51 SW5       29.93S HX  95
SWAINSBORO     FAIR      86  75  70 W3        29.94S HX  95
VIDALIA        CLEAR     90  73  58 CALM      29.94R HX  98
EASTMAN        FAIR      87  65  49 CALM      29.97R
HAZLEHURST     FAIR      83  71  67 CALM      29.93R
ALMA           PTCLDY    84  74  71 S8        29.95R HX  91
6HR MIN TEMP:  84; 6HR MAX TEMP:  97;

WAYCROSS       MOCLDY    81  73  78 S7        29.97R
JESUP          FAIR      82  73  74 S3        29.96S
BAXLEY         FAIR      82  73  74 S5        29.94S
BRUNSWICK      CLEAR     81  73  78 CALM      29.96F
SAINT SIMONS   CLEAR     83  77  82 S6        29.95F HX  92
6HR MIN TEMP:  83; 6HR MAX TEMP:  90;


$$

SCZ027-028-034-036>038-045-046-048>050-GAZ119-141-190100-
...LAKE AND SUPPLEMENTAL COASTAL OBSERVATIONS...

STATION/POSITION TIME  TEMP    WIND        PRES    WAVE   SWELL
                       AIR SEA DIR/SP/G            HT/PER HT/PER/DIR
                 (UTC) (F)     (DEG/KT/KT) (MB)    (FT/S) (FT/S/D)
WINYAH BAY       NOT AVBL
LAKE MURRAY      2320   90     230/  8/ 10 1011.2
ACE BASIN NERRS  NOT AVBL
FORT PULASKI     2342   86 87  200/  9/ 14 1014.3R
SAPELO ISLAND    NOT AVBL

$$

ANZ835-935-AMZ111-154-330-350-352-354-370-450-454-472-190100-
...C-MAN AND BUOY OBSERVATIONS...

STATION/POSITION TIME  TEMP    WIND        PRES    WAVE   SWELL
                       AIR SEA DIR/SP/G            HT/PER HT/PER/DIR
                 (UTC) (F)     (DEG/KT/KT) (MB)    (FT/S) (FT/S/D)
BUOY 41004       2350   84 85  210/ 14/ 16 1013.5F   3/ 8   2/130/ 8
BUOY 41008       2250   86 86  180/ 14/ 17 1013.9    2/ 9   2/100/ 9
FOLLY BEACH CMAN 2300   86     200/ 15/ 17 1014.4R
CAPERS NEARSHORE 2308   84 86  210/ 16/ 19 1013.2R
FRIPP NEARSHORE  2308   87     190/ 14/ 17 1013.4R


STATION/POSITION TIME  TEMP    WIND        PRES    WAVE   SWELL
                       AIR SEA DIR/SP/G            HT/PER HT/PER/DIR
                 (UTC) (F)     (DEG/KT/KT) (MB)    (FT/S) (FT/S/D)
5E ST. MARYS GA  2330      85                N/A     2/ 8
FRYING PAN BUOY  2350   84 85  210/ 17/ 19 1013.1S   3/ 5   2/110/ 7
BUOY 41025       2350   85 85  200/ 19/ 23 1012.0S   4/ 5   2/100/ 8
CAPE LOOKOUT NC  2300   85     210/ 13/ 15 1012.0F
BUOY 41002       2350   84 85  200/ 12/ 14 1016.0R   3/ 5   2/ 50/ 8
BUOY 41010       2350   85 86  160/ 10/ 12 1016.3R   2/ 8   2/100/ 8
ST AUGUSTINE FL  0000   80 82  230/  8/ 10 1016.1R


$$




USA.gov is the U.S. government's official web portal to all federal, state and local government web resources and services.